Regional Weather Roundup
Issued by NWS Wakefield, VA

Home | Current Version | Previous Version | Text Only | Print | Product List | Glossary On
Versions: 1 2 3 4 5 6 7 8 9 10 11 12 13 14 15 16 17 18 19 20 21 22 23 24 25 26 27 28 29 30 31 32 33 34 35 36 37 38 39 40 41 42 43 44 45 46 47 48 49 50
000
ASUS41 KAKQ 220410
RWRAKQ

REGIONAL WEATHER ROUNDUP
NATIONAL WEATHER SERVICE WAKEFIELD VA
1200 AM EDT MON SEP 22 2014

Note: "fair" indicates few or no clouds below 12,000 feet with no
significant weather and/or obstructions to visibility. * = Denotes
station may not report precipitation (e.g., rain,snow,etc.),
thunder or fog.

VAZ042-051-052>054-056-220500-
NORTHERN VIRGINIA

CITY           SKY/WX    TMP DP  RH WIND       PRES   REMARKS
WASH NATIONAL  MOCLDY    79  55  43 NW16G25   29.75R
DULLES         PTCLDY    72  53  51 NW14G22   29.77R
FORT BELVOIR   MOCLDY    75  57  54 NW15G22   29.75R
QUANTICO       PTCLDY    74  56  53 NW10      29.76R
FREDERICKSBRG* MOCLDY    75  64  67 NW6       29.76R
STAFFORD*      MOCLDY    67  67 100 CALM      29.81R
WARRENTON      PTCLDY    70  59  69 NW12G17   29.77R
CULPEPER*      PTCLDY    73  55  53 NW6       29.79R
MANASSAS*      PTCLDY    73  52  46 NW16G25   29.77R
LEESBURG*      PTCLDY    72  55  56 NW16G25   29.78R
WINCHESTER     CLEAR     68  46  45 W7        29.82R
FRONT ROYAL*   PTCLDY    70  48  46 W10G16    29.81R
LURAY*         PTCLDY    72  46  40 W14G22    29.83R
$$

VAZ048-049-060>072-079>083-220500-
CENTRAL AND SOUTH CENTRAL VIRGINIA...AND NORTH CENTRAL NORTH CAROLINA

CITY           SKY/WX    TMP DP  RH WIND       PRES   REMARKS
RICHMOND       PTCLDY    78  64  61 W13       29.77R
CHESTERFIELD*  CLEAR    N/A N/A N/A W7        29.79R
PETERSBURG*    CLEAR     69  64  85 SW3       29.80R
HANOVER        PTCLDY    75  65  70 W9        29.78R
TAPPAHANNOCK*  PTCLDY    73  63  71 W3        29.77R
CHARLOTTSVILLE PTCLDY    73  53  49 W6        29.81R
ORANGE*        PTCLDY    73  57  56 W7        29.80R
LOUISA*        CLOUDY    73  61  64 W5        29.78R
FARMVILLE*     CLOUDY    75  63  64 SW5       29.80R
CREWE*         PTCLDY    75  62  63 W7        29.81R
FORT PICKETT*  CLEAR     73  64  74 W9        29.81S
LUNENBURG*     CLEAR     70  66  88 CALM      29.82S
SOUTH HILL*    CLEAR     70  70 100 SW3       29.88R
LAWRENCEVILLE* CLEAR     69  66  89 SW6       29.82R
ROANOKE RAPIDS CLEAR     72  64  78 SW7       29.83R
RALEIGH        HVY RAIN  72  67  84 SW15G21   29.87S FOG
$$

VAZ088>098-220500-
SOUTHEAST VIRGINIA

CITY           SKY/WX    TMP DP  RH WIND       PRES   REMARKS
NORFOLK        CLEAR     76  64  66 SW16      29.77R
VIRGINIA BEACH CLEAR     74  64  71 SW14      29.77R
NORFOLK NAVAL  CLEAR     77  65  66 SW8       29.79R
WEST POINT*    CLEAR     77  65  65 SW8       29.77R
NEWPORT NEWS   CLEAR     79  66  64 SW15G22   29.77R
LANGLEY AFB    CLEAR     76  67  73 W15       29.76R
FORT EUSTIS    CLEAR     76  65  70 SW8       29.76R
WILLIAMSBURG*  CLEAR     77  68  73 SW9       29.78R
HR EXEC AP*    CLEAR     73  64  73 SW10      29.80S
FRANKLIN*      CLEAR     73  64  73 W8        29.80R
WAKEFIELD      CLEAR     73  66  78 SW6       29.79R
$$

VAZ020-022-025-037-045-220500-
WEST CENTRAL AND SOUTHWEST VIRGINIA

CITY           SKY/WX    TMP DP  RH WIND       PRES   REMARKS
STAUNTON*      PTCLDY    65  49  57 NW6       29.88R
HOT SPRINGS VA CLEAR     54  33  44 NW21G28   29.97R
LYNCHBURG      CLOUDY    70  60  70 SW5       29.87R
DANVILLE       CLOUDY    73  65  75 W5        29.86R
SOUTH BOSTON*  NOT AVBL
MARTINSVILLE   CLOUDY    71  59  65 N6        29.92R
ROANOKE        PTCLDY    66  51  58 NW10      29.93R
BLACKSBURG     MOCLDY    64  55  72 W7        29.98S
DUBLIN*        PTCLDY    66  49  54 NW7       29.98S
MARION*        PTCLDY    61  50  65 W9        30.03R
HILLSVILLE*    PTCLDY    63  52  67 NW12      29.99R
RICHLANDS*     CLEAR     63  52  68 W7        30.03S
WISE*          CLEAR     59  45  58 NW6       30.06S
ABINGDON*      PTCLDY    65  51  62 N6        30.02S
$$

MDZ021>025-VAZ099-100-220500-
SOUTHERN MARYLAND AND THE DELMARVA PENINSULA

CITY           SKY/WX    TMP DP  RH WIND       PRES   REMARKS
PATUXENT RIVER CLEAR     75  64  68 W9        29.73R
BAY BRIDGE APT   N/A     72  64  78 W6        29.71R
LEONARDTOWN    MOCLDY    73  63  68 W7        29.75R
DOVER          PTCLDY    69  66  88 SW7       29.66S
GEORGETOWN     CLEAR     74  65  73 S9        29.69S
EASTON         CLEAR     75  66  73 CALM      29.74R
CAMBRIDGE      CLEAR     73  64  73 W6        29.70R
SALISBURY      MOCLDY    77  67  71 SW12      29.70S
OCEAN CITY     MOCLDY    73  65  75 SW9       29.70S
WALLOPS ISLAND CLEAR     76  66  71 W12       29.72S
ACCOMACK*      PTCLDY    75  64  69 SW14G20   29.74R
$$

NCZ012>017-030>032-220500-
EASTERN NORTH CAROLINA

CITY           SKY/WX    TMP DP  RH WIND       PRES   REMARKS
ELIZABETH CITY CLEAR     73  66  78 SW12      29.81R
AHOSKIE*       PTCLDY    72  65  78 CALM      29.82S
EDENTON*       CLEAR     74  66  77 SW9       29.83S
CURRITUCK*     CLEAR     74  64  71 SW7       29.81R
KILL DEVIL HLS CLEAR     74  66  74 SW10G18   29.81S
MANTEO         CLEAR     74  66  75 SW14      29.83R
CAPE HATTERAS  CLEAR     75  70  84 W14G25    29.86S
TARBORO*       CLOUDY    75  65  70 SW7       29.85R
GOLDSBORO      MOCLDY    75  70  83 SW5       29.85S
WASHINGTON     CLEAR     73  65  76 SW6       29.86S
GREENVILLE     PTCLDY    73  66  78 SW9       29.88S
NEW BERN       CLEAR     73  64  73 SW6       29.89R
WILMINGTON     CLEAR     75  70  84 SW12      29.91S
$$

VAZ048-220500-
ELSEWHERE

CITY           SKY/WX    TMP DP  RH WIND       PRES   REMARKS
HARRISBURG PA  PTCLDY    69  58  67 NW10      29.71R
BALTIMORE      MOCLDY    75  52  44 W16G28    29.72R
ANNAPOLIS        N/A     73  62  68 W7        29.71R
ANDREWS AFB    MOCLDY    76  59  55 NW17G25   29.74R
WILMINGTON DE  PTCLDY    68  63  84 W3        29.69S
PHILADELPHIA   CLOUDY    73  62  68 SW9       29.67F
WILDWOOD NJ*   CLOUDY    72  63  73 SW10      29.68F
ATLANTIC CITY  PTCLDY    68  65  90 S6        29.66F
HENDERSON NC   PTCLDY    73  63  71 SW7       29.86R
GREENSBORO     PTCLDY    69  66  90 NW9       29.89R
ROCKY MOUNT    MOCLDY    74  65  73 SW9       29.85S
FAYETTEVILLE   CLEAR     74  64  71 S9        29.88S
CHARLOTTE      CLOUDY    73  65  75 W3        29.91S
$$

VAZ100-220500-
MARINE

STATION/POSITION TIME  TEMP    WIND        PRES    WAVE   SWELL
                       AIR SEA DIR/SP/G            HT/PER HT/PER
                 (UTC) (F)     (DEG/KT/KT) (MB)    (FT/S) (FT/S)
44066 TX TWR #4  0400   69 70  260/ 14/ 16 1004.4R   4/ 8   3/ 8
CAPE MAY NJ      0400   73 75  220/  9/ 13 1004.3R
LEWES DE         0400   72 72  240/  8/ 12 1004.6R
15NM E FENWICK I 0400   74 72              1005.1F   4/ 8
OCEAN-CITY-INLET 0400   74 72  240/ 11/ 14 1005.2S
WACHAPREAGUE VA  0400   75 74  240/  6/ 13 1006.9R
THOMAS POINT MD  0400   74 74  300/ 13/ 16 1007.1R
GOOSES REEF MD   0400   75     270/  8/ 10 1006.7R
COVE POINT MD    0400   75     280/  8/ 11 1006.2R
SOLOMONS ISLAND  0400      76                N/A
BISHOPS HEAD MD  0400   76 74  250/ 16/ 19 1005.8R
PINEY POINT MD   0400          290/ 12/ 14   N/A
POTOMAC MD       0400   76     260/ 14/ 16 1005.8R
CAMBRIDGE MD     0400   76 74  250/  9/ 12 1005.6R
LEWISETTA VA     0400   75 75  290/  7/  9 1006.6R
RAPPAHANNOCK LGT 0400          230/ 20/ 22 1007.3R
STINGRAY PT      0400   77     250/ 14/ 17   N/A
YORK RVR RNG VA  0400   78     250/ 18/ 20 1006.9R
YORKTOWN VA      0400   77 76  230/ 14/ 17 1007.3R
JAMESTOWN VA     0400   75     240/ 14/ 16   N/A
DOMINION TERM VA 0400   77     250/ 16/ 19 1008.0S
KIPTOPEKE VA     0400      78  240/ 16/ 18   N/A
CHES BAY BRIDGE  0400   77 75  220/ 18/ 20 1007.2R
CAPE HENRY VA    0400   76     220/ 12/ 18 1006.8R
CHESAPEAKE LGHT  0300   76     230/ 21/ 23 1008.0F
WILLOUBY STN VA  0400   77     250/ 13/ 17 1006.4S
S CRANEY ISL VA  0400          210/  8/ 12 1007.9S
CAPE HENRY BUOY  0400      75                N/A     4/ 9   2/11
1ST LANDING BUOY 0400   77     240/ 16/ 19 1007.5S
CAPE CHARLES BUO 0400      74                N/A     3/ 9   3/ 9
OFFSHORE WE BUOY 0400      74                N/A     4/ 9   3/ 9
64NM E OF VA BCH 0400   76 77  220/ 17/ 21 1008.1R   5/ 8   5/ 8
DUCK PIER NC     0400   76 74  220/ 16/ 19 1008.8S
44100 DUCK FRF   0400      74                N/A     5/ 8   2/11
44056 DUCK FRF   0400                        N/A     3/ 9   2/11
OREGON INLET NC  0400   76 76  220/ 16/ 19 1009.9R
DIAMOND SHLS NC  0400   80     230/ 23/ 27 1011.0R   6/ 9   3/ 9
CAPE LOOKOUT NC  0300   79     240/ 12/ 16 1011.9F
$$


USA.gov is the U.S. government's official web portal to all federal, state and local government web resources and services.